GFSCGP_con_3kmhel_057.txt.gz
Helicity
55 64 8 8 -35 51 7 -53 -13 -14 31 27 102 298 74 -25 12 203 99 -8 -68 176 89 77 88 87 34 103 264 176 198 117 62 -4 -10 -30 -29 -21 -40 -10 1 82 46 25
108 -45 18 24 22 74 32 43 27 42 44 86 351 240 100 212 205 99 -28 -36 -88 120 37 63 111 149 240 248 230 230 182 159 102 52 2 -27 -25 -23 -21 -21 2 62 44 36
97 72 3 23 9 21 11 11 -52 -52 -6 158 191 243 154 135 52 -54 80 -25 -12 151 97 124 152 213 289 316 251 193 186 187 130 109 31 -26 -18 -26 -21 -13 -22 55 67 52
66 3 49 -16 17 -13 20 -0 -10 -6 31 199 168 165 165 168 71 -15 -81 42 -64 138 155 144 187 223 274 285 287 219 223 201 141 126 55 29 14 1 3 19 -8 12 74 72
57 81 7 61 -2 8 -37 39 27 31 18 49 114 114 190 133 121 97 -95 148 -24 17 199 246 244 304 294 318 307 238 201 197 151 101 90 54 3 -6 -18 3 18 37 39 51
61 54 51 -26 40 -2 16 28 60 98 94 64 37 142 122 180 154 172 -71 170 9 27 240 252 303 276 316 307 315 279 212 186 159 129 109 49 17 7 -12 -8 8 22 70 84
57 78 23 51 17 30 15 26 114 122 138 111 18 82 79 -17 44 165 134 297 46 177 250 269 266 271 266 348 308 290 237 170 164 121 72 45 33 38 25 -2 2 19 103 117
87 60 78 40 67 -10 56 -23 106 150 170 80 65 70 -41 -46 -21 96 274 209 182 257 263 324 320 320 288 332 354 317 272 206 162 141 80 51 19 14 38 16 8 18 83 154
112 39 61 33 55 27 92 94 55 79 89 110 135 83 33 14 5 49 66 241 250 235 340 348 320 347 316 291 376 373 294 232 202 158 95 48 40 34 37 38 -0 3 20 83
29 106 91 23 19 17 53 154 82 68 95 96 79 87 21 60 23 28 51 117 229 210 362 338 343 345 320 286 339 414 357 266 205 146 96 72 60 57 70 54 41 33 5 -4
393 3 34 60 64 12 62 104 142 79 52 58 94 1 46 83 102 14 -50 44 188 217 309 324 348 335 327 265 298 345 400 296 204 145 109 59 36 37 65 98 65 55 28 7
526 153 -0 44 45 60 71 98 98 153 50 19 -9 -82 108 -33 151 23 -46 -22 101 178 281 309 348 329 311 264 268 309 339 351 268 194 101 60 33 24 32 53 64 54 49 17
522 322 218 -35 2 97 42 151 59 138 158 47 9 -149 -61 2 81 115 43 104 78 154 288 297 317 292 253 231 274 282 307 321 323 215 154 102 80 74 68 66 65 67 68 48
302 339 331 211 94 23 153 83 83 65 136 99 13 -94 16 109 189 104 19 117 157 219 220 264 300 221 220 241 257 272 261 280 268 289 253 204 164 136 113 109 119 125 141 115
515 481 422 268 212 146 45 64 121 97 64 86 67 15 17 52 182 225 206 131 137 121 169 287 257 269 210 228 252 319 322 289 275 258 237 239 228 221 196 161 144 130 129 165
772 538 470 122 171 121 61 173 130 142 73 37 53 81 80 100 123 200 248 271 254 293 270 296 281 245 238 250 268 302 348 302 290 268 285 251 238 242 241 201 160 141 142 145
1116 698 501 87 150 130 71 58 209 82 105 67 35 56 199 275 233 248 317 277 267 297 317 317 241 239 214 141 252 287 276 297 284 333 326 330 324 283 245 215 174 155 157 156
952 1029 439 309 167 190 114 45 124 91 105 104 20 -0 212 273 355 366 336 333 317 332 317 374 310 242 191 162 101 243 327 342 285 305 377 394 427 393 309 247 222 166 147 153
334 896 578 383 240 217 175 149 90 136 407 354 134 266 205 473 657 648 478 452 438 380 372 339 263 246 253 237 175 182 212 269 334 296 309 398 459 495 457 342 276 226 161 126
4 364 552 426 393 337 311 301 288 159 325 407 451 612 600 501 659 585 449 428 454 421 381 411 373 272 230 225 220 111 176 200 155 223 300 334 369 423 477 416 320 270 211 162
168 440 624 472 524 171 365 261 91 235 115 272 553 693 639 708 589 560 476 489 440 419 443 436 379 287 229 109 162 242 187 145 126 176 177 244 280 320 377 397 356 292 230 184
142 188 330 449 348 332 166 266 440 476 -32 94 412 520 683 632 599 602 605 615 482 401 425 410 387 341 248 143 104 198 171 191 140 65 129 156 205 264 318 335 344 314 259 191
120 119 118 224 225 248 199 164 407 141 266 191 185 325 381 394 509 501 490 453 484 472 355 335 297 284 263 142 71 61 90 63 78 95 100 169 227 223 224 249 296 324 300 238
189 -23 -18 78 179 73 201 50 84 173 228 279 145 246 296 280 250 292 264 289 311 365 408 324 293 258 229 207 187 121 57 8 -6 46 82 138 205 224 210 250 242 249 273 240
-117 -100 -15 16 59 7 120 86 58 2 106 195 320 229 221 306 307 193 180 200 232 261 316 276 244 260 216 228 186 205 122 114 63 73 84 143 197 215 267 318 277 192 260 229
-61 -20 -80 9 115 64 149 88 28 2 94 150 205 296 305 152 166 78 108 94 124 197 244 196 223 257 269 194 124 101 101 127 113 73 75 107 216 234 330 376 358 377 320 316

GFSCGP_con_3kmhel_060.txt.gz
Helicity
143 189 79 9 97 86 148 123 92 21 118 252 237 249 150 194 137 223 206 174 109 93 7 -11 -13 -17 -35 112 121 151 111 61 48 23 19 -10 -21 2 7 5 17 15 37 36
256 67 89 72 109 102 146 100 9 -13 30 128 192 185 269 173 147 306 265 275 182 65 40 -6 -29 -37 -40 20 130 146 157 106 53 12 -2 -16 -17 -22 -12 -18 1 38 41 51
111 110 49 56 68 117 124 22 -66 -42 17 7 171 190 145 -13 -16 27 33 260 189 137 155 68 29 4 22 35 121 186 192 160 104 37 -9 -1 -35 -28 -47 -35 1 23 31 43
81 -4 85 52 37 82 15 -42 -48 -48 3 90 136 192 197 128 -18 -36 76 178 108 188 142 162 167 73 78 131 133 209 225 190 134 97 36 4 17 18 -16 -18 -13 21 36 32
78 72 20 68 -9 62 4 46 -22 -40 -11 3 34 46 134 169 -46 32 28 129 102 99 130 233 250 245 190 172 208 213 254 235 168 121 61 32 2 3 -23 -39 -29 -17 15 47
73 57 96 27 35 9 7 62 67 -1 21 84 23 84 53 194 166 178 84 55 98 34 92 196 283 332 335 290 232 236 261 246 208 145 81 51 30 -8 -15 -36 -20 -31 -12 31
108 60 81 85 80 -8 14 81 100 5 69 76 37 110 -2 95 161 227 214 71 94 21 88 98 194 318 382 380 328 279 233 195 180 154 123 77 41 21 17 2 1 -2 -1 -11
231 111 69 91 86 105 37 53 101 141 122 93 14 126 -37 34 152 210 293 161 155 141 59 99 89 237 353 442 389 314 232 197 190 155 122 84 53 18 2 -2 -1 18 32 31
300 186 124 38 74 56 45 105 50 118 134 72 75 92 43 8 53 3 153 201 124 124 108 102 118 184 275 374 423 363 261 194 176 165 141 114 81 43 9 -13 -12 -5 17 20
122 -12 165 121 54 68 58 62 121 152 62 48 119 109 -19 -18 -6 16 21 160 137 137 134 48 161 211 248 310 376 380 303 240 190 148 107 89 87 76 36 7 -3 -3 9 36
-25 -25 129 -3 91 67 81 98 84 84 108 62 37 -25 31 -1 24 52 113 138 75 158 207 95 157 246 259 265 290 323 304 214 170 146 103 64 49 66 63 40 12 17 4 43
-35 45 -47 159 53 54 15 106 97 107 147 152 69 -103 56 -6 43 20 122 107 74 153 202 233 176 276 250 256 251 269 283 228 177 167 126 76 51 26 28 41 49 20 26 -4
37 154 22 76 -104 3 94 79 80 158 188 139 84 53 -19 7 -46 -32 66 176 75 109 261 214 188 299 268 261 228 265 238 247 194 142 104 84 43 34 34 34 48 52 44 29
-87 165 183 163 337 431 124 227 89 82 165 109 51 32 -74 6 36 34 81 182 199 184 277 275 270 307 255 267 214 248 217 219 226 190 125 102 102 85 73 60 54 68 82 67
-131 227 305 233 326 412 410 341 297 64 100 95 15 -22 -43 -33 44 79 45 149 182 238 265 264 290 292 206 248 153 176 214 264 287 241 193 160 119 121 125 109 97 91 99 101
-74 187 380 326 213 260 323 322 239 156 69 227 39 35 19 -4 17 88 99 211 138 178 258 297 278 272 156 205 156 143 176 211 272 272 251 209 186 173 182 175 165 135 114 107
-42 72 394 293 260 367 200 299 178 130 103 159 53 27 3 106 333 357 293 289 290 272 237 217 213 242 162 137 134 147 176 202 208 197 194 192 188 196 190 186 177 163 154 126
-24 311 381 405 493 299 176 383 319 315 356 301 198 190 -23 237 452 621 694 642 579 481 424 401 317 223 98 89 76 81 210 218 237 244 207 218 220 212 196 171 147 123 111 127
-38 244 553 553 497 331 349 437 481 474 472 492 342 104 167 503 891 904 823 851 860 861 817 700 578 427 306 276 196 192 221 187 192 195 198 252 306 287 257 217 179 150 116 98
-58 188 483 805 560 344 339 588 512 245 648 782 830 651 512 389 752 793 753 703 822 801 700 662 622 618 599 490 233 183 143 231 200 208 247 273 402 385 369 347 298 240 197 168
87 373 656 855 672 239 446 485 301 480 485 572 743 736 682 672 721 755 621 693 655 631 616 573 558 508 528 483 348 265 169 143 133 136 161 223 293 258 327 405 378 334 269 215
93 461 336 634 551 373 447 418 291 602 291 455 734 846 626 549 610 668 710 682 667 678 610 532 494 468 453 433 399 387 370 206 109 47 74 129 232 230 230 278 315 312 297 240
162 90 98 305 576 234 242 315 538 414 269 360 557 777 769 501 525 453 531 549 550 565 559 467 406 399 371 347 313 370 360 271 220 119 56 64 117 153 222 237 251 266 270 262
60 19 68 273 141 169 340 232 465 353 268 338 394 517 588 690 514 434 425 427 425 483 469 433 411 433 411 349 305 245 214 239 202 158 119 92 93 115 172 194 214 227 239 234
46 19 41 53 28 206 122 123 121 399 80 247 250 308 362 384 351 378 337 300 373 391 384 370 323 349 342 312 276 260 201 143 138 144 149 127 75 88 143 251 260 230 224 246
38 -10 -57 21 81 98 214 197 121 51 118 113 106 270 243 214 254 279 179 175 229 304 280 268 251 251 321 303 273 200 164 156 125 111 119 132 126 115 193 270 289 331 278 279

GFSCGP_con_3kmhel_063.txt.gz
Helicity
210 272 107 34 127 148 182 130 79 49 17 130 176 179 253 238 164 222 151 104 156 104 84 35 34 45 21 3 20 -18 -31 -30 -41 -31 -48 -20 7 16 30 10 15 28 34 24
308 143 100 96 99 90 118 150 83 64 44 147 104 54 176 312 322 321 259 121 130 48 32 29 14 44 33 4 14 6 -2 -22 3 -0 -4 -6 -3 22 28 16 -1 14 41 36
258 105 119 116 110 86 100 98 67 66 75 54 105 90 66 154 134 199 155 155 106 121 86 34 -4 17 59 6 41 27 27 26 39 55 33 106 66 37 5 34 9 -10 29 46
153 52 113 127 81 125 23 98 93 23 131 150 85 37 84 101 154 224 194 230 150 121 98 50 8 -21 16 53 101 89 87 61 55 64 39 31 6 7 -15 20 24 10 18 31
145 91 101 91 24 103 1 85 86 -5 40 91 98 42 48 140 129 164 262 265 197 146 177 179 103 47 2 31 80 83 83 67 66 81 58 44 4 12 10 -3 -8 2 12 18
132 73 103 25 47 35 41 27 69 14 43 89 132 114 35 -15 40 78 172 202 248 184 141 178 149 79 73 48 108 99 96 81 70 91 92 70 30 14 4 -35 -15 -11 -0 8
157 89 112 68 73 55 71 89 100 52 81 60 40 129 -46 -28 67 147 178 234 222 206 166 165 132 130 135 106 130 115 101 105 91 100 93 90 59 57 30 9 -4 -12 -7 -10
183 208 131 116 86 101 85 105 160 160 115 20 37 149 -47 -21 42 74 227 195 217 199 250 188 163 198 163 159 146 184 167 135 127 135 106 103 67 42 22 17 5 -20 -9 14
82 108 200 198 107 99 64 129 94 143 129 78 -13 78 -66 6 68 72 167 184 174 173 168 188 155 200 181 208 227 256 228 191 176 154 140 106 87 59 25 14 9 -6 -14 -21
24 5 55 116 110 78 66 78 171 205 119 131 77 100 -34 64 34 55 80 76 165 256 181 164 127 203 230 259 319 323 278 240 221 181 150 132 94 62 23 22 22 11 -6 -21
1 -71 92 20 192 128 142 145 112 95 135 125 -24 79 71 30 39 32 49 36 110 307 217 218 205 180 239 217 289 347 319 259 198 194 175 107 71 45 31 13 17 18 -2 -10
-11 -28 -75 156 143 378 294 162 102 150 162 167 19 -145 98 78 38 61 49 52 58 136 161 207 242 231 248 215 254 327 333 311 270 241 193 129 95 65 34 18 -0 12 20 -11
-55 10 -43 8 9 106 153 272 201 89 85 101 79 -139 15 28 38 22 42 40 42 17 25 198 293 288 262 260 224 248 292 305 283 222 180 123 78 55 37 31 23 15 18 6
-155 -27 44 -15 197 256 245 416 442 230 145 60 4 -68 29 51 41 83 41 49 8 57 76 203 329 255 233 279 255 214 242 247 223 177 143 118 94 82 57 43 38 41 40 22
-106 -145 40 28 53 273 341 430 482 301 182 105 -20 -26 74 119 60 -45 -78 -39 -120 -83 143 199 254 223 243 229 268 216 204 213 184 157 106 109 121 95 59 47 42 44 37 61
-46 -223 -42 -39 46 316 278 381 266 349 264 146 12 -65 -26 38 -13 -57 -49 44 66 33 96 168 183 244 239 248 299 245 218 186 207 151 148 120 127 74 73 53 53 70 92 86
-70 -113 33 47 113 293 172 229 277 219 325 199 3 -44 43 75 79 61 125 148 72 36 49 149 195 209 176 170 240 198 242 198 181 165 118 105 101 107 114 101 81 79 116 137
-0 66 205 96 271 241 157 204 433 346 628 595 266 142 25 35 107 318 353 297 205 77 119 131 112 123 158 173 187 132 168 143 161 182 146 136 125 126 146 137 126 119 119 125
106 126 241 8 338 390 387 274 521 499 614 849 772 437 309 185 243 416 663 593 494 478 425 273 225 215 207 173 133 121 115 164 180 166 161 167 167 163 197 162 164 153 128 100
128 68 134 15 403 419 471 342 642 439 590 985 954 824 495 277 269 433 724 737 777 726 686 569 374 315 269 216 88 98 96 115 138 154 171 184 180 168 191 225 206 173 138 100
113 168 92 173 460 326 445 456 591 391 455 871 952 958 877 547 417 515 613 674 827 856 829 777 700 608 439 273 145 86 118 96 112 164 205 163 167 173 183 211 212 214 220 201
139 164 184 195 484 404 272 276 544 368 491 698 844 984 986 858 593 466 435 499 684 843 881 806 744 755 691 544 375 335 260 197 112 126 135 106 162 213 221 244 237 236 242 220
173 79 39 128 316 254 322 482 583 390 512 711 766 860 855 823 742 511 384 384 431 530 631 633 621 613 642 622 522 455 423 262 231 161 104 131 155 133 155 207 210 237 219 207
90 69 37 116 114 323 437 226 389 395 534 590 590 687 696 697 646 691 517 361 349 388 472 510 520 515 538 528 488 445 404 324 244 225 222 203 143 130 131 137 156 172 186 190
58 31 26 44 64 283 145 330 345 367 272 428 447 488 532 455 492 456 461 389 311 291 340 411 457 476 453 396 362 353 370 309 258 215 197 198 178 136 119 166 184 167 150 171
115 45 3 95 98 118 295 355 402 289 309 153 394 409 313 312 408 391 370 293 240 251 277 344 415 432 441 381 345 313 287 256 216 183 165 139 117 116 117 120 155 208 194 209

GFSCGP_con_3kmhel_069.txt.gz
Helicity
199 178 78 44 48 86 100 133 122 73 102 46 14 24 49 45 16 24 45 79 76 74 9 -0 -23 -0 -0 -9 -11 -13 -7 -5 8 10 17 21 17 11 15 11 8 10 -2 -1
247 103 49 66 63 44 77 129 127 92 122 74 40 55 25 48 62 65 86 87 79 49 38 7 -23 -19 -23 -17 -16 -14 -15 -11 -0 21 30 41 15 17 18 13 7 10 5 1
172 130 62 79 73 66 32 53 104 144 130 89 63 39 24 26 47 18 18 40 51 62 69 40 3 -15 -1 -15 -13 -5 -12 -13 -6 4 29 33 28 33 18 17 4 17 24 13
108 100 37 41 60 64 54 29 76 130 188 111 58 83 20 7 36 -1 32 64 85 64 60 42 10 -16 -4 -0 9 -3 11 5 -4 -9 -7 -6 10 18 10 6 6 18 24 20
150 65 94 30 50 57 57 33 34 74 144 148 136 89 67 -16 20 4 -1 52 86 103 94 56 59 26 1 37 29 19 26 37 16 -15 -3 -5 -7 5 18 10 1 23 25 12
79 131 83 53 48 68 58 72 65 63 71 102 93 121 12 -1 3 31 11 32 74 98 106 67 27 19 2 46 62 58 58 46 26 -4 -13 -26 -15 2 19 19 8 31 32 14
139 84 97 102 71 20 98 118 182 156 177 70 85 121 10 23 -6 -13 20 32 70 125 102 109 61 33 31 50 79 86 97 52 27 4 -5 -33 -6 5 12 27 19 28 28 34
139 79 120 146 111 136 30 94 231 189 155 108 108 92 -17 -47 16 100 32 29 51 78 76 94 116 88 69 79 144 125 120 90 51 22 6 -24 -20 -14 -10 -8 11 29 30 34
124 129 170 197 243 135 112 104 73 226 167 126 119 42 11 76 -27 -27 43 48 100 86 76 83 97 96 109 101 76 137 127 121 114 39 69 4 -30 -28 -28 -1 1 12 30 16
119 132 121 182 196 170 149 104 126 164 172 122 92 26 6 13 11 -10 -19 32 25 49 81 59 40 62 125 144 131 138 120 108 74 94 85 47 -15 -26 -9 -18 -7 6 47 13
118 153 134 143 141 170 169 157 194 177 129 135 110 -7 47 14 5 6 28 56 38 41 66 90 73 92 130 157 157 140 117 100 90 82 79 84 33 -20 -27 -22 -22 -6 21 10
105 110 141 151 178 244 280 263 204 186 147 136 138 -7 42 82 96 62 49 13 15 13 101 145 97 66 55 90 157 191 147 112 97 98 122 101 77 59 -22 -18 -32 -31 -6 -18
87 138 100 120 107 106 190 200 215 225 196 172 113 -3 43 60 92 85 147 192 105 25 22 24 45 97 115 124 148 178 178 117 96 115 108 125 125 105 2 9 -22 -13 -15 -16
48 118 166 229 334 354 276 223 224 257 174 107 115 131 78 17 51 9 33 94 156 77 33 30 62 122 157 107 138 178 154 123 127 117 101 129 154 147 118 110 99 36 -13 -15
64 103 150 190 176 229 239 291 269 180 235 166 79 50 67 92 84 -4 9 48 155 162 120 63 57 119 159 118 121 148 139 164 137 155 136 120 156 151 136 118 112 93 -15 -23
75 97 95 193 127 122 181 193 192 160 176 186 222 151 93 98 7 71 -22 -15 26 112 133 87 62 73 146 169 138 155 195 203 213 164 142 155 158 154 146 131 134 112 10 -15
68 66 66 134 137 189 123 134 116 114 104 74 96 101 146 114 64 -2 49 25 39 64 107 98 94 50 142 154 233 170 226 232 226 194 150 145 152 154 147 131 121 117 73 50
90 76 56 98 188 169 140 202 74 51 108 163 166 199 212 201 77 77 25 51 117 114 95 88 79 71 53 78 104 146 139 231 215 180 152 133 130 130 126 123 107 91 72 76
69 71 63 67 151 292 269 207 323 297 132 188 225 229 261 289 204 163 183 64 14 71 103 106 108 68 46 53 160 192 179 216 208 165 136 132 113 110 108 93 89 85 72 66
90 57 78 80 117 282 189 238 253 240 69 262 349 345 320 313 104 151 352 232 116 15 37 93 151 85 88 133 98 200 195 193 162 180 156 158 136 113 108 110 105 104 104 68
151 92 50 47 102 163 12 126 215 175 199 379 420 483 424 382 346 410 348 321 266 118 92 164 303 314 208 121 160 170 156 141 128 87 15 46 74 69 74 80 90 92 77 65
7 76 91 59 22 152 -42 47 143 222 267 338 403 463 515 501 520 509 437 401 412 316 220 282 303 383 299 198 197 181 137 137 99 45 58 71 76 54 42 66 64 67 70 58
-20 -73 79 71 21 29 -7 4 80 206 401 330 398 522 567 573 567 561 509 498 502 453 376 369 282 282 321 343 222 188 182 130 66 77 85 75 73 65 69 52 31 11 20 34
32 40 -93 47 39 66 34 -41 45 161 333 386 414 492 539 596 593 564 512 476 519 568 536 452 425 484 500 425 324 251 258 156 101 100 88 75 69 47 37 40 43 35 41 59
82 111 100 15 146 131 31 116 77 127 253 376 372 362 420 501 557 517 507 440 459 507 568 448 451 511 540 518 427 383 310 261 172 133 109 87 91 71 51 67 66 61 63 66
13 -54 -4 28 65 91 83 111 63 170 219 329 333 357 320 368 435 511 498 406 377 419 455 508 421 484 526 501 480 460 408 362 333 318 267 219 174 63 92 94 93 132 156 143

GFSCGP_con_3kmhel_072.txt.gz
Helicity
117 137 79 37 35 64 174 105 88 57 39 44 20 16 21 44 27 12 23 35 27 26 13 -7 -9 33 36 25 20 8 9 10 6 5 7 18 14 7 -3 -4 -7 -14 -8 1
168 73 49 70 55 48 52 81 108 80 55 51 29 35 30 49 38 12 -5 27 35 18 19 6 -13 -0 12 38 21 10 5 7 17 22 28 25 17 7 2 -5 -10 -12 -12 -5
106 98 61 79 71 52 35 48 87 96 44 76 69 38 39 51 27 7 -18 -8 13 37 60 40 22 -20 44 33 4 7 6 8 25 34 31 42 30 43 16 -1 -12 -20 -9 1
108 82 73 57 57 43 63 30 72 111 182 62 45 64 47 52 24 -12 8 2 14 46 39 69 47 25 -10 12 57 29 14 21 22 22 -2 11 18 12 5 2 -4 -14 -7 3
98 87 83 84 65 49 63 76 51 58 129 142 68 88 45 51 35 -6 13 23 26 44 52 63 93 53 48 50 55 52 32 37 34 20 22 32 16 7 7 7 1 9 -18 -2
110 27 74 52 67 60 83 117 66 72 105 106 96 74 80 63 39 41 38 27 22 32 48 47 64 57 27 61 53 75 73 62 25 10 -13 -0 -8 11 16 9 -6 -2 -10 -13
33 103 55 54 66 68 73 98 167 147 152 106 73 91 74 72 78 49 41 33 32 36 45 38 57 61 57 72 83 83 111 91 66 -9 -15 -26 -27 -12 20 20 -8 4 -10 -12
64 89 44 39 74 65 94 96 173 132 129 90 72 115 60 33 114 34 40 39 35 23 2 26 52 69 85 66 94 96 148 124 110 -15 16 22 -36 -2 -4 -18 3 -9 -5 -8
110 65 117 159 63 93 48 109 77 105 86 154 66 57 51 39 38 7 86 95 49 35 21 22 43 44 81 80 77 129 164 141 151 104 105 67 -40 -16 -30 4 -17 -15 -1 13
132 116 62 75 106 93 154 54 126 111 178 126 109 61 80 27 73 56 23 58 66 34 18 36 35 46 48 71 78 84 109 150 165 153 121 72 -16 -19 -5 9 -20 -21 -5 -9
219 150 76 91 68 61 106 151 113 75 111 129 133 55 50 36 -2 44 56 45 35 24 10 -6 18 33 32 55 77 84 70 72 100 138 152 118 40 -1 1 -36 -33 -44 -24 -19
126 222 184 114 86 202 234 147 50 135 123 112 105 63 48 40 26 9 15 27 31 22 17 21 4 35 51 44 71 95 89 68 64 109 161 124 114 90 -33 -31 -42 -53 -46 -39
148 129 113 100 110 111 153 134 205 110 63 74 93 112 42 -1 81 57 49 103 110 97 75 34 28 66 32 46 46 68 69 67 71 84 88 97 84 80 30 -3 2 -58 -56 -33
107 177 179 237 213 275 197 165 221 230 154 139 113 95 27 22 41 67 85 86 141 123 128 47 47 37 44 36 57 56 54 51 63 83 86 103 92 100 73 68 71 26 -27 -11
90 143 117 162 189 203 243 243 235 253 270 178 73 60 85 71 122 47 53 48 126 146 174 103 69 35 30 31 23 49 31 63 65 119 101 123 134 115 88 93 90 80 28 -31
35 105 118 144 189 126 192 195 166 157 177 204 285 269 141 134 61 99 -30 15 86 140 159 189 162 108 55 31 12 29 39 62 100 150 158 150 122 125 115 107 98 96 72 82
39 59 84 162 136 147 151 148 94 111 97 110 115 135 112 114 100 5 3 -10 27 42 83 133 141 107 72 24 31 -5 32 45 78 129 159 189 161 128 128 123 114 115 99 87
29 53 56 129 131 158 101 148 220 203 67 68 135 177 164 181 268 57 -36 -10 94 54 74 101 120 103 73 55 13 27 27 61 108 94 99 126 152 119 112 127 122 125 108 112
21 55 62 71 99 121 105 121 186 334 151 207 195 200 151 116 126 109 45 22 1 34 94 106 100 120 99 62 31 36 31 39 89 143 111 105 131 124 110 117 122 119 121 108
9 40 61 123 112 163 100 119 213 221 197 266 283 210 153 166 66 113 143 128 108 37 -5 86 104 116 88 41 34 54 60 76 91 124 138 118 107 139 129 122 129 121 107 90
68 62 63 56 83 105 -7 33 -56 124 142 216 179 198 232 249 272 193 190 205 168 89 82 142 109 117 152 43 29 121 97 57 46 52 85 112 89 86 108 113 103 99 88 74
124 102 111 71 95 94 39 -51 70 96 161 144 180 156 192 290 313 253 199 241 271 195 158 175 130 138 290 166 106 149 124 97 54 66 97 139 128 80 61 62 60 61 70 74
39 -28 -22 78 64 99 53 47 19 8 85 166 140 159 214 302 382 397 274 292 345 348 263 307 264 138 283 377 205 158 128 105 83 87 112 134 114 100 92 73 45 39 52 65
12 -4 -34 -105 32 41 -6 7 -6 11 73 92 169 235 330 332 382 418 348 332 378 428 475 474 357 272 412 442 398 492 261 207 121 119 112 120 55 39 29 21 27 30 40 45
44 27 4 -44 -4 5 14 41 78 67 47 49 150 204 310 342 366 390 362 332 350 407 457 478 524 465 428 417 414 347 341 172 188 146 156 86 76 79 71 60 51 27 16 2
54 19 1 -13 55 52 60 59 68 35 58 47 129 213 217 254 295 365 384 315 304 356 356 402 507 529 491 414 371 331 382 363 248 197 179 149 143 114 125 82 73 97 126 151

GFSCGP_con_3kmhel_075.txt.gz
Helicity
55 76 48 17 5 7 47 16 24 29 27 24 14 52 184 -10 67 75 71 24 21 32 21 39 -15 17 36 38 44 40 52 78 60 -22 -13 -3 -7 -0 5 6 5 -13 -4 -5
94 42 27 17 16 30 58 60 59 33 24 24 11 8 61 75 69 66 61 28 13 15 44 40 -6 14 24 45 44 48 58 84 47 19 11 14 -2 -12 6 -3 -17 -2 -2 -7
72 61 42 58 57 65 53 50 42 40 25 29 36 16 115 292 80 41 31 36 26 27 54 48 33 15 18 47 55 60 62 76 61 36 44 44 30 34 12 22 -10 -3 -1 -1
62 19 63 53 77 53 73 36 57 53 44 61 30 33 17 171 29 52 44 56 20 28 23 59 60 38 40 43 64 79 66 70 53 54 50 39 17 -10 -4 -1 -5 31 -5 2
64 52 70 86 74 45 70 30 21 62 69 64 29 54 37 88 141 82 40 23 38 47 48 74 91 89 73 68 75 81 98 74 61 53 38 64 15 6 -6 -0 100 10 9 -7
50 27 23 37 34 50 31 47 46 32 54 111 63 38 44 69 79 84 73 39 35 48 75 56 78 86 57 72 79 83 116 101 81 69 13 54 37 11 1 9 54 -12 -2 15
8 43 38 29 40 24 53 58 139 132 132 90 33 54 46 41 80 53 88 53 62 48 53 61 51 68 82 83 91 110 161 134 109 94 59 90 62 -0 63 70 -19 -11 -13 8
57 31 16 30 46 35 60 55 162 116 125 88 32 71 53 33 37 130 37 87 71 56 55 49 55 83 105 80 139 131 182 173 153 142 100 69 68 67 33 53 -2 -25 -8 1
64 65 67 27 17 38 34 81 38 55 28 39 45 16 30 29 20 60 95 68 75 71 45 68 71 60 87 101 133 177 190 203 143 159 169 125 74 -32 63 49 -3 32 22 37
118 152 108 42 74 94 55 39 67 67 134 93 39 26 52 39 43 41 28 29 39 46 58 49 52 83 80 91 114 155 168 209 189 169 189 173 126 54 85 89 66 -11 8 37
176 155 101 49 81 75 68 139 78 66 52 83 70 53 33 38 69 48 61 24 47 32 60 49 58 65 102 70 75 107 140 139 155 139 166 154 149 97 79 109 93 13 49 65
96 154 107 59 -11 5 26 52 44 94 77 65 53 49 57 50 61 15 31 29 27 16 27 52 69 66 80 74 75 107 122 102 105 120 161 156 170 150 94 55 29 71 3 53
153 136 127 112 77 52 77 80 100 62 53 61 81 58 48 101 101 33 9 12 37 73 69 55 56 68 57 87 64 84 106 111 86 87 119 153 152 137 133 87 83 80 69 63
160 183 276 172 104 155 133 39 65 75 90 64 62 53 73 19 56 130 162 192 195 187 162 145 51 49 53 68 126 102 107 98 98 102 73 128 152 135 137 154 116 111 100 89
55 135 143 126 143 148 191 225 210 135 130 167 84 57 56 72 72 190 133 112 175 138 244 146 100 30 64 77 124 132 58 97 118 136 115 128 156 155 150 151 138 124 107 93
37 78 200 152 159 118 211 190 216 266 264 237 179 179 176 153 106 87 90 118 138 112 155 226 289 221 72 65 69 91 77 61 86 174 158 128 158 156 147 143 131 129 128 115
39 81 112 159 78 74 165 175 118 111 104 175 220 147 82 41 26 114 81 114 135 135 93 130 232 225 247 122 44 34 82 30 61 124 164 149 142 141 124 136 151 141 139 131
9 9 50 108 110 199 81 83 82 94 67 47 99 129 74 42 99 194 102 -19 83 119 100 100 121 137 105 93 90 61 48 63 18 100 157 172 181 134 132 137 135 159 158 145
-3 20 31 67 120 75 62 197 205 247 133 192 40 13 74 107 113 150 80 -30 -63 -2 52 83 90 115 88 105 114 104 96 74 65 63 117 176 175 158 135 144 161 161 157 139
-13 -8 41 46 99 119 58 101 71 115 153 232 325 296 312 347 195 148 183 45 -38 -7 -28 20 43 189 -14 97 79 84 56 116 84 66 108 163 175 155 138 149 179 187 176 145
-13 -32 -5 34 73 60 88 40 63 115 156 225 211 302 264 152 255 295 340 107 45 26 31 75 39 58 78 89 98 68 41 94 111 49 101 142 145 141 114 104 119 158 166 123
-6 -5 22 19 45 61 73 33 71 106 90 92 122 80 133 117 98 179 290 163 96 87 54 97 119 112 159 189 190 67 80 75 154 120 92 137 160 137 123 98 94 86 121 138
-4 -8 -22 -4 69 83 81 39 69 55 26 27 85 103 71 85 75 78 163 146 103 96 70 91 163 112 177 287 444 97 101 170 177 144 117 113 138 159 152 133 129 107 100 88
-7 -1 -19 -114 -49 63 88 66 25 68 42 35 41 33 82 78 118 87 159 155 161 137 125 105 118 151 277 396 549 681 583 214 156 122 120 109 117 156 176 151 109 80 54 42
23 19 25 3 -42 29 56 73 77 47 47 44 69 56 51 84 101 150 193 211 205 189 181 154 137 158 239 306 494 652 734 650 260 146 127 116 117 114 152 171 146 145 103 86
44 36 27 16 -19 -29 38 81 91 38 34 47 35 96 93 106 102 117 196 200 223 231 216 165 145 149 216 309 398 548 616 629 442 236 223 165 128 126 113 127 243 301 170 107

GFSCGP_con_3kmhel_078.txt.gz
Helicity
41 63 29 1 -8 -1 64 58 -7 -6 2 9 44 210 261 282 128 18 37 74 145 95 -13 11 3 70 95 69 104 78 65 146 65 32 -15 23 -24 -12 -8 3 10 13 -2 12
77 26 22 3 -10 2 60 114 60 38 12 8 44 220 280 275 109 90 -26 140 28 113 84 7 -23 62 81 81 127 87 91 144 88 48 -9 -7 -17 2 -5 -10 3 3 -1 21
66 35 -15 38 28 29 25 73 42 48 71 15 23 195 271 141 12 -18 -21 115 40 93 190 81 20 47 73 113 151 124 119 135 88 63 -8 7 -22 -17 -22 91 43 -7 4 7
46 24 7 11 51 24 67 16 47 51 54 56 26 45 301 256 79 32 34 142 114 28 186 125 64 52 70 135 150 146 142 140 85 34 -16 10 2 -9 -8 43 -19 5 27 8
48 22 44 25 27 18 41 21 26 39 68 71 54 52 39 253 187 281 239 -31 6 129 117 131 83 64 93 150 177 158 133 144 78 10 68 15 -1 -27 -24 -17 71 94 21 8
42 32 19 24 21 34 35 39 53 33 44 112 88 51 33 242 230 163 66 -21 -77 150 58 91 175 137 82 133 172 185 160 137 104 28 11 49 -37 1 31 2 127 103 46 12
-46 15 33 28 36 21 19 41 130 126 128 104 39 103 53 51 245 215 23 -32 144 152 148 43 121 144 123 151 207 224 205 159 132 91 16 85 -17 -43 1 13 73 42 66 49
73 60 -15 23 28 30 58 31 107 131 137 79 28 67 62 -46 35 135 46 78 182 124 166 117 144 154 190 140 223 229 283 206 151 123 67 77 41 -55 -3 69 51 66 1 34
157 46 19 52 -4 29 40 63 22 37 22 34 18 30 5 29 -1 103 151 196 237 184 202 161 168 191 233 173 206 268 326 258 196 134 102 112 89 -37 53 87 62 4 -69 19
142 160 136 33 44 2 40 28 41 55 115 123 28 28 87 24 40 50 124 168 273 20 151 135 152 180 192 215 190 229 297 330 233 190 171 129 129 86 84 13 51 47 48 8
197 144 96 120 26 52 39 66 52 59 54 110 104 40 11 163 49 85 154 158 142 -1 -78 236 146 169 224 260 216 219 241 304 273 199 156 152 122 99 56 109 75 58 -25 22
204 157 180 166 86 35 69 108 48 77 134 74 31 16 9 84 88 30 66 152 135 9 53 72 25 189 224 279 280 235 240 277 288 239 182 149 144 124 98 74 97 88 111 94
211 186 182 121 187 56 37 43 44 58 42 89 73 23 18 71 60 41 64 42 111 69 309 -52 -79 141 217 238 292 253 221 226 242 217 178 146 135 132 91 95 126 140 94 102
128 98 184 301 120 190 178 47 58 49 38 73 111 71 75 101 113 101 272 280 230 301 207 201 216 132 234 245 288 235 217 211 197 217 173 144 131 135 129 118 113 138 160 137
5 72 133 199 176 179 246 191 124 87 67 108 91 50 14 370 502 430 181 201 179 196 210 263 293 249 127 -2 248 222 223 199 212 215 214 165 151 156 148 133 127 124 117 145
33 -18 92 240 155 213 272 345 182 155 110 143 86 -29 -110 -72 119 321 195 232 292 292 293 322 318 338 224 193 238 211 222 232 176 236 294 211 174 166 151 153 146 137 118 128
24 12 33 91 147 154 209 236 174 193 122 92 217 119 56 -65 68 121 254 187 355 394 301 264 269 281 298 125 255 142 171 186 177 170 245 279 230 202 192 155 145 146 132 126
1 17 36 16 81 169 113 63 67 122 192 88 124 61 53 -15 101 114 74 116 62 141 282 320 277 303 273 364 286 201 84 168 113 140 180 241 262 238 219 184 134 116 139 136
-6 -62 42 24 50 56 332 106 147 354 116 127 145 133 175 318 76 157 214 174 37 60 173 300 201 164 223 303 306 250 198 126 144 57 121 199 265 258 236 205 153 129 116 116
-124 -82 -43 18 40 29 50 43 62 182 195 120 101 89 227 279 41 84 218 377 104 -78 -26 103 167 68 63 101 221 189 115 111 67 144 106 169 205 264 261 229 189 164 143 133
-2 -110 -69 -21 55 26 -1 25 119 160 190 170 99 33 71 183 313 238 97 157 247 -79 -34 21 56 29 -8 60 85 153 107 106 71 120 162 170 208 209 236 228 196 174 153 141
-27 -34 -38 -50 15 45 115 -27 -26 65 86 89 125 107 -18 36 47 155 143 72 38 -33 -38 50 52 61 -9 43 42 69 113 111 45 81 187 166 162 203 196 197 173 148 155 123
31 41 18 12 54 141 96 98 183 154 109 72 33 23 47 51 1 37 43 96 68 36 -27 56 68 57 16 17 39 181 220 152 197 79 175 196 153 163 174 167 163 149 140 136
76 65 58 40 74 68 56 34 94 185 136 150 102 39 11 52 18 63 61 36 112 103 14 46 56 49 24 30 49 133 299 359 224 43 213 196 205 179 161 187 178 176 154 145
70 54 61 -87 -18 16 116 232 152 120 82 45 73 77 64 62 -5 41 79 68 69 78 50 45 31 4 15 58 62 112 267 416 437 287 181 189 177 195 158 139 214 204 162 154
85 71 47 31 -16 -28 48 97 95 64 38 21 5 55 78 76 56 50 95 101 99 68 86 67 54 14 35 60 85 78 208 395 450 391 319 190 130 138 145 140 180 330 173 189